Powrót do katalogu

TRANSIT 11 DEB

AktywnyPO
NORAD 11991·DEBRIS·🇺🇸 United States

Wystrzelony Jan 28, 1966 z Vandenberg Space Force Base

Loading…

Następne Przeloty (najbliższe 24 godziny)

TLE

ŚwieżeSource: Space-Track

Epoka: Sep 14, 2026, 04:38 UTC

1 11991U 66005H   26257.19332855  .00000418  00000-0  31911-3 0  9997
2 11991  90.1631 343.9999 0176222  68.7695 320.9383 13.84976247 33724

Śledź TRANSIT 11 DEB w czasie rzeczywistym z AllMySat

Download on the App Store